Tracking 35331 objects as of 15-Sep-2026
HD Live streaming from Space Station
objects crossing your sky now

STARLINK-30994

Track STARLINK-30994 now!
10-day predictions
STARLINK-30994 is classified as:


NORAD ID: 58483
Int'l Code: 2023-186L
Launch date: December 3, 2023
Source: United States (US)
Launch site: AIR FORCE EASTERN TEST RANGE (AFETR)
Your satellite tracking list
Your tracking list is empty




NASA's NSSDC Master Catalog

Two Line Element Set (TLE):
1 58483U 23186L   26258.38837964  .00098126  00000-0  20686-2 0  9999
2 58483  42.9942 259.4994 0015236  96.9228 263.3364 15.44084513156920
Source of the keplerian elements: AFSPC